Hourly Data Report for April 19, 2021

NANAIMO A
BRITISH COLUMBIA
Current Station Operator: NAVCAN

49°03'16.000" N
123°52'12.000" W
28.00 m
1025365
YCD

Download Data

Hourly Data (April 2021)
Hourly Data Report for April 19, 2021
TIME
LST
Temp Definition
°C
Dew Point Definition
°C
Rel Hum Definition
%
Precip. Amount Definition
mm

Wind Dir Definition
10's deg

Wind Spd Definition
km/h
Visibility Definition
km
Stn Press Definition
kPa
Hmdx Definition


Wind Chill Definition


Weather Definition


00:00 8.6 5.9 83 LegendMM 4 3 LegendMM 101.81     LegendNANA
01:00 9.6 4.3 70 LegendMM 24 3 LegendMM 101.86     LegendNANA
02:00 7.9 3.4 73 LegendMM 6 1 LegendMM 101.90     LegendNANA
03:00 8.0 4.0 76 LegendMM 19 8 LegendMM 101.96     LegendNANA
04:00 6.6 3.8 82 LegendMM 29 3 LegendMM 102.03     LegendNANA
05:00 5.0 3.2 88 LegendMM 36 1 LegendMM 102.06     LegendNANA
06:00 5.0 3.3 88 LegendMM 33 7 LegendMM 102.10     LegendNANA
07:00 10.1 6.4 77 LegendMM 33 2 LegendMM 102.13     LegendNANA
08:00 16.6 -0.2 32 LegendMM 14 14 LegendMM 102.16     LegendNANA
09:00 17.9 -2.6 24 LegendMM 16 22 LegendMM 102.17     LegendNANA
10:00 18.7 -3.7 21 LegendMM 16 24 LegendMM 102.17     LegendNANA
11:00 19.4 -4.9 19 LegendMM 16 21 LegendMM 102.15     LegendNANA
12:00 20.2 -3.8 19 LegendMM 15 17 LegendMM 102.12     LegendNANA
13:00 20.5 -4.8 18 LegendMM 16 9 LegendMM 102.07     LegendNANA
14:00 20.8 -6.5 15 LegendMM 17 10 LegendMM 102.02     LegendNANA
15:00 21.5 -4.0 17 LegendMM 9 7 LegendMM 101.95     LegendNANA
16:00 21.4 -5.1 16 LegendMM 12 9 LegendMM 101.90     LegendNANA
17:00 20.7 -4.9 17 LegendMM 10 4 LegendMM 101.87     LegendNANA
18:00 20.0 -6.0 17 LegendMM 17 5 LegendMM 101.84     LegendNANA
19:00 16.6 -0.2 32 LegendMM 26 5 LegendMM 101.82     LegendNANA
20:00 14.2 0.6 39 LegendMM 24 6 LegendMM 101.85     LegendNANA
21:00 13.1 -0.2 40 LegendMM 26 16 LegendMM 101.87     LegendNANA
22:00 10.2 1.4 54 LegendMM 29 3 LegendMM 101.88     LegendNANA
23:00 8.3 0.6 58 LegendMM 4 3 LegendMM 101.90     LegendNANA

Notes on Data Quality.

Legend

  • E = Estimated
  • M = Missing
  • NA = Not Available*
  • [empty] = Indicates an unobserved value
Date modified: